Regional Weather Roundup
Issued by NWS

Home | Current Version | Previous Version | Text Only | Print | Product List | Glossary Off
Versions: 1 2 3 4 5 6 7 8 9 10 11 12 13 14 15 16 17 18 19 20 21 22 23 24 25 26 27 28 29 30 31 32 33 34 35 36 37 38 39 40 41 42 43 44 45 46 47 48 49 50

000
ASUS44 KMEG 211610
RWRTN
TENNESSEE HOURLY STATE WEATHER ROUNDUP
NATIONAL WEATHER SERVICE MEMPHIS TN
1000 AM CST TUE FEB 21 2017

TNZ002-004-019-021-049-052-054-088>092-211700-
WEST TENNESSEE

CITY           SKY/WX    TMP DP  RH WIND       PRES   REMARKS
MEMPHIS INTL   DRIZZLE   61  60  97 S12       29.89R
NWS MEMPHIS      N/A     61 N/A N/A MISG        N/A
JACKSON        CLOUDY    62  58  86 S14G20    29.91R
UNION CITY     SUNNY    N/A N/A N/A CALM      29.87R
PARIS          SUNNY     57  55  94 E16       29.88F
HUNTINGDON     PTSUNNY   63  57  82 SE7G16    29.87F
$$

TNZ008-025-027-028-033-062-065-066-211700-
NORTH MIDDLE TENNESSEE

CITY           SKY/WX    TMP DP  RH WIND       PRES   REMARKS
NASHVILLE      CLOUDY    65  51  60 S9        29.99S
PORTLAND       PTSUNNY   64  48  55 VRB7G15   30.00S
CLARKSVILLE    LGT RAIN  62  51  67 SE12      29.96F
SMYRNA         PTSUNNY   68  53  58 S13G20    30.00S
COOKEVILLE     SUNNY     66  50  55 SE9G16    30.02S
GALLATIN       PTSUNNY   66  50  55 SE6       30.02F
CROSSVILLE     MOSUNNY   64  46  52 S12G21    30.07S
$$

TNZ061-075-076-078-094-096-097-211700-
SOUTH MIDDLE TENNESSEE

CITY           SKY/WX    TMP DP  RH WIND       PRES   REMARKS
FAYETTEVILLE   CLOUDY    63  54  72 S14G20    30.02S
TULLAHOMA      PTSUNNY   64  48  55 S14       30.03R
WINCHESTER     CLOUDY    64  50  59 S12       30.04R
MCMINNVILLE    SUNNY     70  52  52 S8        30.02S
COLUMBIA       MOSUNNY   66  61  82 S12       29.93F
SHELBYVILLE    PTSUNNY   68  54  60 S18       30.01R
$$

TNZ017-018-042-046-047-211700-
NORTHEAST TENNESSEE

CITY           SKY/WX    TMP DP  RH WIND       PRES   REMARKS
TRI CITIES     PTSUNNY   65  41  41 SE8       30.11F
ELIZABETHTON   SUNNY     66  43  42 SE9G16    30.11F
$$

TNZ012-013-036-069-073-074-211700-
CENTRAL EAST TENNESSEE

CITY           SKY/WX    TMP DP  RH WIND       PRES   REMARKS
KNOXVILLE      CLOUDY    64  45  49 NW5       30.06F
OAK RIDGE      MOSUNNY   62  42  47 CALM      30.09S
GATLINBURG     SUNNY     57  45  62 CALM      30.07S
MORRISTOWN     SUNNY     66  41  39 SE9       30.08S
JACKSBORO      SUNNY     63  43  48 NE6       30.11S
$$

TNZ083-085-099-211700-
SOUTHEAST TENNESSEE

CITY           SKY/WX    TMP DP  RH WIND       PRES   REMARKS
CHATTANOOGA    PTSUNNY   66  45  46 S13G21    30.08R
$$

SKY/WX REPORTED AS FAIR MEANS FEW OR NO CLOUDS BELOW
12 THOUSAND FEET.




USA.gov is the U.S. government's official web portal to all federal, state and local government web resources and services.